Time,TemperatureF,DewpointF,PressureIn,WindDirection,WindDirectionDegrees,WindSpeedMPH,WindSpeedGustMPH,Humidity,HourlyPrecipIn,Conditions,Clouds,dailyrainin,SoftwareType,DateUTC
2013-04-07 00:02:00,29.8,9.6,29.32,NNE,14,0.0,0.0,42,0.00,,---,0.00,VWS V13.00,2013-04-07 08:02:00,
2013-04-07 00:07:00,29.8,9.6,29.32,NNE,21,0.0,0.0,42,0.00,,---,0.00,VWS V13.00,2013-04-07 08:07:00,
2013-04-07 00:12:00,29.5,9.2,29.32,ENE,74,0.0,0.0,42,0.00,,---,0.00,VWS V13.00,2013-04-07 08:12:00,
2013-04-07 00:17:00,29.5,9.8,29.32,NNE,25,0.0,0.0,43,0.00,,---,0.00,VWS V13.00,2013-04-07 08:17:00,
2013-04-07 00:22:00,29.5,9.8,29.32,North,9,0.0,0.0,43,0.00,,---,0.00,VWS V13.00,2013-04-07 08:22:00,
2013-04-07 00:27:00,29.5,9.8,29.32,NNE,17,0.0,0.0,43,0.00,,---,0.00,VWS V13.00,2013-04-07 08:27:00,
2013-04-07 00:32:00,29.5,9.8,29.32,North,357,0.0,0.0,43,0.00,,---,0.00,VWS V13.00,2013-04-07 08:32:00,
2013-04-07 00:37:00,29.5,9.8,29.32,North,357,0.0,0.0,43,0.00,,---,0.00,VWS V13.00,2013-04-07 08:37:00,
2013-04-07 00:42:00,29.7,9.9,29.32,NE,52,0.0,0.0,43,0.00,,---,0.00,VWS V13.00,2013-04-07 08:42:00,
2013-04-07 00:47:00,29.7,9.9,29.32,NNW,329,0.0,0.0,43,0.00,,---,0.00,VWS V13.00,2013-04-07 08:47:00,
2013-04-07 00:52:00,29.7,9.9,29.32,North,353,0.0,0.0,43,0.00,,---,0.00,VWS V13.00,2013-04-07 08:52:00,
2013-04-07 00:57:00,29.7,9.9,29.32,North,357,0.0,0.0,43,0.00,,---,0.00,VWS V13.00,2013-04-07 08:57:00,
2013-04-07 01:02:00,29.3,9.6,29.32,North,357,0.0,0.0,43,0.00,,---,0.00,VWS V13.00,2013-04-07 09:02:00,
2013-04-07 01:07:00,29.1,9.4,29.32,ENE,57,0.0,0.0,43,0.00,,---,0.00,VWS V13.00,2013-04-07 09:07:00,
2013-04-07 01:12:00,28.9,9.3,29.32,NNE,24,0.0,0.0,43,0.00,,---,0.00,VWS V13.00,2013-04-07 09:12:00,
2013-04-07 01:17:00,28.9,9.3,29.32,North,357,0.0,0.0,43,0.00,,---,0.00,VWS V13.00,2013-04-07 09:17:00,
2013-04-07 01:23:00,28.9,9.3,29.32,NNE,32,0.0,0.0,43,0.00,,---,0.00,VWS V13.00,2013-04-07 09:23:00,
2013-04-07 01:28:00,28.9,9.3,29.32,North,353,0.0,0.0,43,0.00,,---,0.00,VWS V13.00,2013-04-07 09:28:00,
2013-04-07 01:33:00,28.8,9.1,29.32,North,6,0.0,0.0,43,0.00,,---,0.00,VWS V13.00,2013-04-07 09:33:00,
2013-04-07 01:38:00,28.8,9.1,29.32,NNE,13,0.0,0.0,43,0.00,,---,0.00,VWS V13.00,2013-04-07 09:38:00,
2013-04-07 01:43:00,28.8,9.1,29.32,NNW,340,0.0,0.0,43,0.00,,---,0.00,VWS V13.00,2013-04-07 09:43:00,
2013-04-07 01:48:00,28.2,9.1,29.32,North,3,0.0,0.0,44,0.00,,---,0.00,VWS V13.00,2013-04-07 09:48:00,
2013-04-07 01:53:00,28.2,9.1,29.32,North,0,0.0,0.0,44,0.00,,---,0.00,VWS V13.00,2013-04-07 09:53:00,
2013-04-07 01:58:00,28.2,9.1,29.32,NNE,14,0.0,0.0,44,0.00,,---,0.00,VWS V13.00,2013-04-07 09:58:00,
2013-04-07 02:03:00,28.0,8.9,29.32,NNW,348,0.0,0.0,44,0.00,,---,0.00,VWS V13.00,2013-04-07 10:03:00,
2013-04-07 02:08:00,28.0,8.9,29.32,North,9,0.0,0.0,44,0.00,,---,0.00,VWS V13.00,2013-04-07 10:08:00,
2013-04-07 02:13:00,27.9,8.8,29.32,North,357,0.0,0.0,44,0.00,,---,0.00,VWS V13.00,2013-04-07 10:13:00,
2013-04-07 02:18:00,28.0,8.9,29.32,North,3,0.0,0.0,44,0.00,,---,0.00,VWS V13.00,2013-04-07 10:18:00,
2013-04-07 02:23:00,27.9,8.8,29.32,NNE,13,0.0,0.0,44,0.00,,---,0.00,VWS V13.00,2013-04-07 10:23:00,
2013-04-07 02:28:00,27.9,8.8,29.32,ENE,65,0.0,0.0,44,0.00,,---,0.00,VWS V13.00,2013-04-07 10:28:00,
2013-04-07 02:33:00,27.9,8.8,29.32,NNE,27,0.0,0.0,44,0.00,,---,0.00,VWS V13.00,2013-04-07 10:33:00,
2013-04-07 02:38:00,27.9,8.8,29.32,NE,35,0.0,0.0,44,0.00,,---,0.00,VWS V13.00,2013-04-07 10:38:00,
2013-04-07 02:43:00,27.9,8.8,29.32,NNE,26,0.0,0.0,44,0.00,,---,0.00,VWS V13.00,2013-04-07 10:43:00,
2013-04-07 02:48:00,27.7,8.6,29.32,ENE,69,0.0,0.0,44,0.00,,---,0.00,VWS V13.00,2013-04-07 10:48:00,
2013-04-07 02:53:00,27.7,8.6,29.32,NNW,328,0.0,0.0,44,0.00,,---,0.00,VWS V13.00,2013-04-07 10:53:00,
2013-04-07 02:58:00,27.7,8.6,29.32,NNE,19,0.0,0.0,44,0.00,,---,0.00,VWS V13.00,2013-04-07 10:58:00,
2013-04-07 03:03:00,27.7,8.6,29.32,NE,35,0.0,0.0,44,0.00,,---,0.00,VWS V13.00,2013-04-07 11:03:00,
2013-04-07 03:09:00,27.5,8.5,29.32,North,10,0.0,0.0,44,0.00,,---,0.00,VWS V13.00,2013-04-07 11:09:00,
2013-04-07 03:15:00,27.5,8.5,29.32,ENE,58,0.0,0.0,44,0.00,,---,0.00,VWS V13.00,2013-04-07 11:15:00,
2013-04-07 03:20:00,27.1,8.1,29.32,NNE,12,0.0,0.0,44,0.00,,---,0.00,VWS V13.00,2013-04-07 11:20:00,
2013-04-07 03:25:00,27.0,8.0,29.32,NE,43,0.0,0.0,44,0.00,,---,0.00,VWS V13.00,2013-04-07 11:25:00,
2013-04-07 03:30:00,27.0,8.0,29.32,NNE,19,0.0,0.0,44,0.00,,---,0.00,VWS V13.00,2013-04-07 11:30:00,
2013-04-07 03:35:00,27.0,8.0,29.32,North,0,0.0,0.0,44,0.00,,---,0.00,VWS V13.00,2013-04-07 11:35:00,
2013-04-07 03:40:00,27.0,8.0,29.32,NNE,17,0.0,0.0,44,0.00,,---,0.00,VWS V13.00,2013-04-07 11:40:00,
2013-04-07 03:45:00,26.8,7.8,29.32,North,3,0.0,0.0,44,0.00,,---,0.00,VWS V13.00,2013-04-07 11:45:00,
2013-04-07 03:50:00,26.8,7.8,29.32,North,349,0.0,0.0,44,0.00,,---,0.00,VWS V13.00,2013-04-07 11:50:00,
2013-04-07 03:56:00,26.8,7.8,29.32,North,0,0.0,0.0,44,0.00,,---,0.00,VWS V13.00,2013-04-07 11:56:00,
2013-04-07 04:01:00,26.8,7.8,29.32,NNW,333,0.0,0.0,44,0.00,,---,0.00,VWS V13.00,2013-04-07 12:01:00,
2013-04-07 04:06:00,26.4,7.5,29.32,NNE,14,0.0,0.0,44,0.00,,---,0.00,VWS V13.00,2013-04-07 12:06:00,
2013-04-07 04:11:00,26.4,7.5,29.32,North,0,0.0,0.0,44,0.00,,---,0.00,VWS V13.00,2013-04-07 12:11:00,
2013-04-07 04:17:00,26.4,7.5,29.32,ENE,59,0.0,0.0,44,0.00,,---,0.00,VWS V13.00,2013-04-07 12:17:00,
2013-04-07 04:22:00,26.4,7.5,29.32,NNE,13,0.0,0.0,44,0.00,,---,0.00,VWS V13.00,2013-04-07 12:22:00,
2013-04-07 04:27:00,26.4,7.5,29.32,ENE,64,0.0,0.0,44,0.00,,---,0.00,VWS V13.00,2013-04-07 12:27:00,
2013-04-07 04:32:00,26.2,7.3,29.32,North,0,0.0,0.0,44,0.00,,---,0.00,VWS V13.00,2013-04-07 12:32:00,
2013-04-07 04:37:00,26.2,7.3,29.32,North,11,0.0,0.0,44,0.00,,---,0.00,VWS V13.00,2013-04-07 12:37:00,
2013-04-07 04:42:00,26.1,7.2,29.32,North,357,0.0,0.0,44,0.00,,---,0.00,VWS V13.00,2013-04-07 12:42:00,
2013-04-07 04:47:00,26.1,7.2,29.32,NE,51,0.0,0.0,44,0.00,,---,0.00,VWS V13.00,2013-04-07 12:47:00,
2013-04-07 04:52:00,26.1,7.2,29.32,NW,315,0.0,0.0,44,0.00,,---,0.00,VWS V13.00,2013-04-07 12:52:00,
2013-04-07 04:57:00,26.1,7.2,29.32,North,357,0.0,0.0,44,0.00,,---,0.00,VWS V13.00,2013-04-07 12:57:00,
2013-04-07 05:02:00,26.1,7.2,29.32,North,11,0.0,0.0,44,0.00,,---,0.00,VWS V13.00,2013-04-07 13:02:00,
2013-04-07 05:07:00,26.1,7.2,29.32,NNE,15,0.0,0.0,44,0.00,,---,0.00,VWS V13.00,2013-04-07 13:07:00,
2013-04-07 05:12:00,26.1,7.2,29.32,North,7,0.0,0.0,44,0.00,,---,0.00,VWS V13.00,2013-04-07 13:12:00,
2013-04-07 05:17:00,26.1,7.2,29.32,North,7,0.0,0.0,44,0.00,,---,0.00,VWS V13.00,2013-04-07 13:17:00,
2013-04-07 05:22:00,25.2,6.8,29.32,North,6,0.0,0.0,45,0.00,,---,0.00,VWS V13.00,2013-04-07 13:22:00,
2013-04-07 05:32:00,24.8,6.5,29.32,North,10,0.0,0.0,45,0.00,,---,0.00,VWS V13.00,2013-04-07 13:32:00,
2013-04-07 05:37:00,24.8,6.5,29.32,North,357,0.0,0.0,45,0.00,,---,0.00,VWS V13.00,2013-04-07 13:37:00,
2013-04-07 05:42:00,24.4,7.1,29.32,North,10,0.0,0.0,47,0.00,,---,0.00,VWS V13.00,2013-04-07 13:42:00,
2013-04-07 05:47:00,24.4,6.6,29.32,North,6,0.0,0.0,46,0.00,,---,0.00,VWS V13.00,2013-04-07 13:47:00,
2013-04-07 05:52:00,24.6,6.8,29.32,North,9,0.0,0.0,46,0.00,,---,0.00,VWS V13.00,2013-04-07 13:52:00,
2013-04-07 05:57:00,24.6,6.8,29.32,NE,55,0.0,0.0,46,0.00,,---,0.00,VWS V13.00,2013-04-07 13:57:00,
2013-04-07 06:02:00,24.6,6.3,29.32,North,0,0.0,0.0,45,0.00,,---,0.00,VWS V13.00,2013-04-07 14:02:00,
2013-04-07 06:07:00,24.6,5.8,29.32,NNE,14,0.0,0.0,44,0.00,,---,0.00,VWS V13.00,2013-04-07 14:07:00,
2013-04-07 06:12:00,24.8,5.5,29.32,NNE,20,0.0,0.0,43,0.00,,---,0.00,VWS V13.00,2013-04-07 14:12:00,
2013-04-07 06:17:00,25.0,5.7,29.32,NNE,15,0.0,0.0,43,0.00,,---,0.00,VWS V13.00,2013-04-07 14:17:00,
2013-04-07 06:22:00,25.0,5.7,29.32,NE,45,0.0,0.0,43,0.00,,---,0.00,VWS V13.00,2013-04-07 14:22:00,
2013-04-07 06:27:00,24.8,5.5,29.32,North,4,0.0,0.0,43,0.00,,---,0.00,VWS V13.00,2013-04-07 14:27:00,
2013-04-07 06:32:00,24.8,5.5,29.32,North,11,0.0,0.0,43,0.00,,---,0.00,VWS V13.00,2013-04-07 14:32:00,
2013-04-07 06:37:00,25.0,5.1,29.32,ENE,73,0.0,0.0,42,0.00,,---,0.00,VWS V13.00,2013-04-07 14:37:00,
2013-04-07 06:43:00,25.2,5.3,29.32,North,9,0.0,0.0,42,0.00,,---,0.00,VWS V13.00,2013-04-07 14:43:00,
2013-04-07 06:48:00,25.2,5.3,29.32,ENE,60,0.0,0.0,42,0.00,,---,0.00,VWS V13.00,2013-04-07 14:48:00,
2013-04-07 06:53:00,25.3,5.5,29.32,NE,53,0.0,0.0,42,0.00,,---,0.00,VWS V13.00,2013-04-07 14:53:00,
2013-04-07 06:59:00,25.3,5.5,29.32,East,99,0.0,0.0,42,0.00,,---,0.00,VWS V13.00,2013-04-07 14:59:00,
2013-04-07 07:04:00,25.3,5.5,29.32,East,87,0.0,0.0,42,0.00,,---,0.00,VWS V13.00,2013-04-07 15:04:00,
2013-04-07 07:09:00,25.3,5.5,29.32,NE,40,0.0,0.0,42,0.00,,---,0.00,VWS V13.00,2013-04-07 15:09:00,
2013-04-07 07:14:00,25.3,5.5,29.32,ENE,69,0.0,0.0,42,0.00,,---,0.00,VWS V13.00,2013-04-07 15:14:00,
2013-04-07 07:19:00,25.3,4.9,29.47,North,0,0.0,0.0,41,0.00,,---,0.00,VWS V13.00,2013-04-07 15:19:00,
2013-04-07 07:24:00,25.3,4.9,29.47,North,10,0.0,0.0,41,0.00,,---,0.00,VWS V13.00,2013-04-07 15:24:00,
2013-04-07 07:29:00,25.3,4.9,29.47,North,4,0.0,0.0,41,0.00,,---,0.00,VWS V13.00,2013-04-07 15:29:00,
2013-04-07 07:34:00,25.3,4.9,29.47,NE,37,0.0,0.0,41,0.00,,---,0.00,VWS V13.00,2013-04-07 15:34:00,
2013-04-07 07:39:00,25.3,4.9,29.47,ENE,60,0.0,0.0,41,0.00,,---,0.00,VWS V13.00,2013-04-07 15:39:00,
2013-04-07 07:44:00,25.3,4.9,29.47,North,6,8.7,10.1,41,0.00,,---,0.00,VWS V13.00,2013-04-07 15:44:00,
2013-04-07 07:49:00,25.3,4.4,29.47,NNW,340,6.7,10.1,40,0.00,,---,0.00,VWS V13.00,2013-04-07 15:49:00,
2013-04-07 07:54:00,25.3,4.9,29.47,NE,46,0.0,10.1,41,0.00,,---,0.00,VWS V13.00,2013-04-07 15:54:00,
2013-04-07 07:59:00,25.3,4.9,29.47,North,353,3.1,10.1,41,0.00,,---,0.00,VWS V13.00,2013-04-07 15:59:00,
2013-04-07 08:04:00,25.3,3.9,29.47,NNE,12,0.0,4.0,39,0.00,,---,0.00,VWS V13.00,2013-04-07 16:04:00,
2013-04-07 08:10:00,25.3,3.9,29.47,NE,52,0.0,4.0,39,0.00,,---,0.00,VWS V13.00,2013-04-07 16:10:00,
2013-04-07 08:15:00,25.2,3.7,29.47,NNW,345,0.0,4.0,39,0.00,,---,0.00,VWS V13.00,2013-04-07 16:15:00,
2013-04-07 08:20:00,25.2,3.7,29.47,NNE,32,0.0,4.0,39,0.00,,---,0.00,VWS V13.00,2013-04-07 16:20:00,
2013-04-07 08:25:00,25.2,3.7,29.47,NNW,344,0.0,0.0,39,0.00,,---,0.00,VWS V13.00,2013-04-07 16:25:00,
2013-04-07 08:30:00,25.3,3.9,29.47,NNE,19,0.0,3.6,39,0.00,,---,0.00,VWS V13.00,2013-04-07 16:30:00,
2013-04-07 08:35:00,25.7,3.6,29.47,NNE,31,0.0,3.6,38,0.00,,---,0.00,VWS V13.00,2013-04-07 16:35:00,
2013-04-07 08:40:00,26.1,3.9,29.47,ENE,67,0.0,0.0,38,0.00,,---,0.00,VWS V13.00,2013-04-07 16:40:00,
2013-04-07 08:45:00,26.1,3.9,29.47,ENE,67,0.0,3.1,38,0.00,,---,0.00,VWS V13.00,2013-04-07 16:45:00,
2013-04-07 08:50:00,26.1,3.9,29.47,ENE,64,0.0,4.0,38,0.00,,---,0.00,VWS V13.00,2013-04-07 16:50:00,
2013-04-07 08:55:00,27.0,3.6,29.47,NE,55,0.0,4.0,36,0.00,,---,0.00,VWS V13.00,2013-04-07 16:55:00,
2013-04-07 09:00:00,27.1,3.7,29.47,North,0,4.5,4.5,36,0.00,,---,0.00,VWS V13.00,2013-04-07 17:00:00,
2013-04-07 09:05:00,27.3,3.9,29.47,NE,55,0.0,4.5,36,0.00,,---,0.00,VWS V13.00,2013-04-07 17:05:00,
2013-04-07 09:10:00,27.3,3.9,29.47,ENE,69,0.0,8.1,36,0.00,,---,0.00,VWS V13.00,2013-04-07 17:10:00,
2013-04-07 09:15:00,27.5,3.5,29.47,East,85,2.7,8.1,35,0.00,,---,0.00,VWS V13.00,2013-04-07 17:15:00,
2013-04-07 09:20:00,27.9,4.4,29.47,NNE,13,3.1,3.1,36,0.00,,---,0.00,VWS V13.00,2013-04-07 17:20:00,
2013-04-07 09:25:00,28.2,4.1,29.47,North,353,0.0,4.0,35,0.00,,---,0.00,VWS V13.00,2013-04-07 17:25:00,
2013-04-07 09:30:00,28.2,4.1,29.47,NNE,16,0.0,4.0,35,0.00,,---,0.00,VWS V13.00,2013-04-07 17:30:00,
2013-04-07 09:35:00,29.1,4.9,29.47,NNW,332,4.0,4.0,35,0.00,,---,0.00,VWS V13.00,2013-04-07 17:35:00,
2013-04-07 09:40:00,29.5,4.6,29.47,North,11,0.0,0.0,34,0.00,,---,0.00,VWS V13.00,2013-04-07 17:40:00,
2013-04-07 09:45:00,30.2,5.2,29.47,NW,305,0.0,0.0,34,0.00,,---,0.00,VWS V13.00,2013-04-07 17:45:00,
2013-04-07 09:50:00,30.7,5.7,29.47,NNW,327,4.9,4.9,34,0.00,,---,0.00,VWS V13.00,2013-04-07 17:50:00,
2013-04-07 09:55:00,30.7,5.7,29.47,North,357,0.0,4.9,34,0.00,,---,0.00,VWS V13.00,2013-04-07 17:55:00,
2013-04-07 10:00:00,32.0,5.5,29.47,North,349,0.0,0.0,32,0.00,,---,0.00,VWS V13.00,2013-04-07 18:00:00,
2013-04-07 10:05:00,31.5,5.7,29.50,North,7,0.0,0.0,33,0.00,,---,0.00,VWS V13.00,2013-04-07 18:05:00,
2013-04-07 10:10:00,31.5,5.0,29.50,WNW,298,3.1,8.3,32,0.00,,---,0.00,VWS V13.00,2013-04-07 18:10:00,
2013-04-07 10:15:00,31.6,5.2,29.50,ENE,57,0.0,8.3,32,0.00,,---,0.00,VWS V13.00,2013-04-07 18:15:00,
2013-04-07 10:20:00,31.6,5.2,29.50,ENE,65,0.0,0.0,32,0.00,,---,0.00,VWS V13.00,2013-04-07 18:20:00,
2013-04-07 10:25:00,29.8,4.2,29.50,NNE,17,0.0,5.8,33,0.00,,---,0.00,VWS V13.00,2013-04-07 18:25:00,
2013-04-07 10:30:00,29.5,3.3,29.50,ENE,62,4.0,11.0,32,0.00,,---,0.00,VWS V13.00,2013-04-07 18:30:00,
2013-04-07 10:35:00,30.4,4.7,29.50,ENE,78,0.0,11.0,33,0.00,,---,0.00,VWS V13.00,2013-04-07 18:35:00,
2013-04-07 10:40:00,30.4,4.7,29.50,ENE,59,2.7,2.7,33,0.00,,---,0.00,VWS V13.00,2013-04-07 18:40:00,
2013-04-07 10:45:00,30.4,4.7,29.50,North,5,0.0,5.8,33,0.00,,---,0.00,VWS V13.00,2013-04-07 18:45:00,
2013-04-07 10:50:00,31.8,6.0,29.50,North,3,0.0,5.8,33,0.00,,---,0.00,VWS V13.00,2013-04-07 18:50:00,
2013-04-07 10:55:00,33.3,7.3,29.50,NNE,16,0.0,5.8,33,0.00,,---,0.00,VWS V13.00,2013-04-07 18:55:00,
2013-04-07 11:01:00,32.9,5.6,29.50,WNW,285,0.0,0.0,31,0.00,,---,0.00,VWS V13.00,2013-04-07 19:01:00,
2013-04-07 11:06:00,32.9,5.6,29.50,NNW,332,0.0,8.1,31,0.00,,---,0.00,VWS V13.00,2013-04-07 19:06:00,
2013-04-07 11:11:00,33.8,7.8,29.50,NNW,338,0.0,8.1,33,0.00,,---,0.00,VWS V13.00,2013-04-07 19:11:00,
2013-04-07 11:16:00,33.1,6.4,29.50,NE,46,0.0,8.1,32,0.00,,---,0.00,VWS V13.00,2013-04-07 19:16:00,
2013-04-07 11:21:00,32.7,6.1,29.50,NNW,338,0.0,0.0,32,0.00,,---,0.00,VWS V13.00,2013-04-07 19:21:00,
2013-04-07 11:26:00,32.2,5.7,29.50,NNW,348,10.5,12.8,32,0.00,,---,0.00,VWS V13.00,2013-04-07 19:26:00,
2013-04-07 11:31:00,32.2,5.7,29.53,ENE,75,3.6,12.8,32,0.00,,---,0.00,VWS V13.00,2013-04-07 19:31:00,
2013-04-07 11:36:00,32.5,6.0,29.53,NNW,337,5.8,12.8,32,0.00,,---,0.00,VWS V13.00,2013-04-07 19:36:00,
2013-04-07 11:41:00,33.1,5.8,29.53,ENE,73,0.0,0.0,31,0.00,,---,0.00,VWS V13.00,2013-04-07 19:41:00,
2013-04-07 11:46:00,32.5,6.0,29.53,North,4,0.0,4.5,32,0.00,,---,0.00,VWS V13.00,2013-04-07 19:46:00,
2013-04-07 11:51:00,32.5,6.0,29.53,North,353,3.1,13.2,32,0.00,,---,0.00,VWS V13.00,2013-04-07 19:51:00,
2013-04-07 11:57:00,30.7,4.4,29.53,NE,50,7.6,13.2,32,0.00,,---,0.00,VWS V13.00,2013-04-07 19:57:00,
2013-04-07 12:02:00,31.3,4.9,29.53,East,86,0.0,7.6,32,0.00,,---,0.00,VWS V13.00,2013-04-07 20:02:00,
2013-04-07 12:07:00,32.2,5.7,29.53,NE,46,5.4,8.3,32,0.00,,---,0.00,VWS V13.00,2013-04-07 20:07:00,
2013-04-07 12:12:00,32.5,6.6,29.53,WNW,302,0.0,12.3,33,0.00,,---,0.00,VWS V13.00,2013-04-07 20:12:00,
2013-04-07 12:17:00,32.0,5.5,29.53,ENE,57,3.6,12.3,32,0.00,,---,0.00,VWS V13.00,2013-04-07 20:17:00,
2013-04-07 12:22:00,32.2,5.7,29.53,NE,42,3.6,4.9,32,0.00,,---,0.00,VWS V13.00,2013-04-07 20:22:00,
2013-04-07 12:27:00,32.7,6.8,29.53,WNW,302,0.0,7.2,33,0.00,,---,0.00,VWS V13.00,2013-04-07 20:27:00,
2013-04-07 12:32:00,31.8,6.0,29.53,North,353,5.8,10.1,33,0.00,,---,0.00,VWS V13.00,2013-04-07 20:32:00,
2013-04-07 12:37:00,29.5,4.6,29.53,ENE,65,11.0,11.0,34,0.00,,---,0.00,VWS V13.00,2013-04-07 20:37:00,
2013-04-07 12:42:00,29.1,4.3,29.53,ENE,69,5.8,10.5,34,0.00,,---,0.00,VWS V13.00,2013-04-07 20:42:00,
2013-04-07 12:48:00,29.3,5.1,29.53,ENE,69,5.8,10.5,35,0.00,,---,0.00,VWS V13.00,2013-04-07 20:48:00,
2013-04-07 12:53:00,30.7,6.3,29.53,East,79,0.0,10.5,35,0.00,,---,0.00,VWS V13.00,2013-04-07 20:53:00,
2013-04-07 12:58:00,29.5,6.4,29.53,NE,51,8.1,13.2,37,0.00,,---,0.00,VWS V13.00,2013-04-07 20:58:00,
2013-04-07 13:03:00,29.8,7.9,29.53,North,0,8.7,8.7,39,0.00,,---,0.00,VWS V13.00,2013-04-07 21:03:00,
2013-04-07 13:09:00,30.7,8.1,29.53,East,88,0.0,8.7,38,0.00,,---,0.00,VWS V13.00,2013-04-07 21:09:00,
2013-04-07 13:14:00,30.0,7.5,29.56,ENE,78,0.0,8.7,38,0.00,,---,0.00,VWS V13.00,2013-04-07 21:14:00,
2013-04-07 13:19:00,29.8,7.9,29.56,ENE,61,0.0,8.7,39,0.00,,---,0.00,VWS V13.00,2013-04-07 21:19:00,
2013-04-07 13:24:00,30.6,8.6,29.56,East,92,8.1,8.1,39,0.00,,---,0.00,VWS V13.00,2013-04-07 21:24:00,
2013-04-07 13:29:00,32.2,10.6,29.56,North,2,8.7,8.7,40,0.00,,---,0.00,VWS V13.00,2013-04-07 21:29:00,
2013-04-07 13:34:00,29.3,7.4,29.56,ENE,78,0.0,8.7,39,0.00,,---,0.00,VWS V13.00,2013-04-07 21:34:00,
2013-04-07 13:39:00,29.7,8.3,29.56,NNE,24,0.0,8.7,40,0.00,,---,0.00,VWS V13.00,2013-04-07 21:39:00,
2013-04-07 13:45:00,27.9,6.7,29.56,ENE,57,12.8,12.8,40,0.00,,---,0.00,VWS V13.00,2013-04-07 21:45:00,
2013-04-07 13:50:00,27.0,5.9,29.56,ENE,68,0.0,12.8,40,0.00,,---,0.00,VWS V13.00,2013-04-07 21:50:00,
2013-04-07 13:55:00,28.6,7.3,29.56,ENE,78,0.0,12.8,40,0.00,,---,0.00,VWS V13.00,2013-04-07 21:55:00,
2013-04-07 14:00:00,28.6,7.3,29.56,East,92,7.6,7.6,40,0.00,,---,0.00,VWS V13.00,2013-04-07 22:00:00,
2013-04-07 14:05:00,29.5,8.7,29.56,NNW,345,6.3,7.6,41,0.00,,---,0.00,VWS V13.00,2013-04-07 22:05:00,
2013-04-07 14:10:00,27.1,5.5,29.56,ENE,76,8.1,8.1,39,0.00,,---,0.00,VWS V13.00,2013-04-07 22:10:00,
2013-04-07 14:15:00,28.6,7.3,29.56,NNE,32,3.6,11.0,40,0.00,,---,0.00,VWS V13.00,2013-04-07 22:15:00,
2013-04-07 14:20:00,27.7,6.0,29.56,East,90,7.6,7.6,39,0.00,,---,0.00,VWS V13.00,2013-04-07 22:20:00,
2013-04-07 14:25:00,29.3,8.0,29.56,NE,45,0.0,7.6,40,0.00,,---,0.00,VWS V13.00,2013-04-07 22:25:00,
2013-04-07 14:30:00,28.9,6.5,29.56,ENE,58,6.3,7.6,38,0.00,,---,0.00,VWS V13.00,2013-04-07 22:30:00,
2013-04-07 14:35:00,30.6,8.0,29.56,ENE,61,13.2,15.4,38,0.00,,---,0.00,VWS V13.00,2013-04-07 22:35:00,
2013-04-07 14:40:00,30.2,7.7,29.56,NE,56,0.0,0.0,38,0.00,,---,0.00,VWS V13.00,2013-04-07 22:40:00,
2013-04-07 14:45:00,30.0,6.9,29.56,NNE,25,0.0,0.0,37,0.00,,---,0.00,VWS V13.00,2013-04-07 22:45:00,
2013-04-07 14:50:00,31.5,9.9,29.56,North,353,8.7,8.7,40,0.00,,---,0.00,VWS V13.00,2013-04-07 22:50:00,
2013-04-07 14:56:00,32.9,10.7,29.56,NNW,335,8.3,8.7,39,0.00,,---,0.00,VWS V13.00,2013-04-07 22:56:00,
2013-04-07 15:01:00,32.7,8.7,29.56,NE,49,0.0,0.0,36,0.00,,---,0.00,VWS V13.00,2013-04-07 23:01:00,
2013-04-07 15:06:00,32.2,7.6,29.56,East,80,0.0,0.0,35,0.00,,---,0.00,VWS V13.00,2013-04-07 23:06:00,
2013-04-07 15:11:00,30.9,7.1,29.56,East,80,0.0,0.0,36,0.00,,---,0.00,VWS V13.00,2013-04-07 23:11:00,
2013-04-07 15:16:00,31.5,7.0,29.56,NNW,335,0.0,0.0,35,0.00,,---,0.00,VWS V13.00,2013-04-07 23:16:00,
2013-04-07 15:21:00,31.5,8.8,29.56,NNW,333,10.1,10.1,38,0.00,,---,0.00,VWS V13.00,2013-04-07 23:21:00,
2013-04-07 15:26:00,29.5,5.2,29.56,ENE,68,10.1,10.1,35,0.00,,---,0.00,VWS V13.00,2013-04-07 23:26:00,
2013-04-07 15:32:00,31.3,8.6,29.56,WNW,297,0.0,10.1,38,0.00,,---,0.00,VWS V13.00,2013-04-07 23:32:00,
2013-04-07 15:37:00,33.3,9.8,29.56,NW,314,0.0,10.1,37,0.00,,---,0.00,VWS V13.00,2013-04-07 23:37:00,
2013-04-07 15:42:00,32.5,7.3,29.56,NNE,32,0.0,0.0,34,0.00,,---,0.00,VWS V13.00,2013-04-07 23:42:00,
2013-04-07 15:47:00,29.7,5.4,29.56,ENE,63,7.6,7.6,35,0.00,,---,0.00,VWS V13.00,2013-04-07 23:47:00,
2013-04-07 15:52:00,30.9,7.1,29.56,North,10,0.0,7.6,36,0.00,,---,0.00,VWS V13.00,2013-04-07 23:52:00,
2013-04-07 15:57:00,31.6,7.1,29.56,ENE,77,0.0,7.6,35,0.00,,---,0.00,VWS V13.00,2013-04-07 23:57:00,
2013-04-07 16:02:00,30.9,5.9,29.56,North,353,0.0,0.0,34,0.00,,---,0.00,VWS V13.00,2013-04-08 00:02:00,
2013-04-07 16:07:00,30.4,6.0,29.56,SE,146,0.0,0.0,35,0.00,,---,0.00,VWS V13.00,2013-04-08 00:07:00,
2013-04-07 16:12:00,30.6,6.8,29.56,WNW,302,2.7,2.7,36,0.00,,---,0.00,VWS V13.00,2013-04-08 00:12:00,
2013-04-07 16:17:00,31.1,7.3,29.56,WNW,302,2.7,2.7,36,0.00,,---,0.00,VWS V13.00,2013-04-08 00:17:00,
2013-04-07 16:22:00,29.3,5.1,29.56,ENE,61,3.1,3.1,35,0.00,,---,0.00,VWS V13.00,2013-04-08 00:22:00,
2013-04-07 16:27:00,29.3,5.1,29.56,ENE,76,0.0,3.1,35,0.00,,---,0.00,VWS V13.00,2013-04-08 00:27:00,
2013-04-07 16:32:00,28.9,4.7,29.56,ENE,77,0.0,8.1,35,0.00,,---,0.00,VWS V13.00,2013-04-08 00:32:00,
2013-04-07 16:37:00,28.9,4.7,29.53,ENE,65,0.0,8.1,35,0.00,,---,0.00,VWS V13.00,2013-04-08 00:37:00,
2013-04-07 16:42:00,29.1,4.9,29.53,NNW,345,0.0,0.0,35,0.00,,---,0.00,VWS V13.00,2013-04-08 00:42:00,
2013-04-07 16:47:00,29.3,5.1,29.53,East,84,0.0,0.0,35,0.00,,---,0.00,VWS V13.00,2013-04-08 00:47:00,
2013-04-07 16:52:00,29.3,5.1,29.53,ENE,64,3.1,3.1,35,0.00,,---,0.00,VWS V13.00,2013-04-08 00:52:00,
2013-04-07 16:57:00,29.5,5.2,29.53,SSE,164,0.0,4.9,35,0.00,,---,0.00,VWS V13.00,2013-04-08 00:57:00,
2013-04-07 17:02:00,28.4,4.2,29.53,East,83,5.8,5.8,35,0.00,,---,0.00,VWS V13.00,2013-04-08 01:02:00,
2013-04-07 17:08:00,28.4,4.2,29.53,East,87,0.0,5.8,35,0.00,,---,0.00,VWS V13.00,2013-04-08 01:08:00,
2013-04-07 17:13:00,28.9,4.7,29.53,East,82,5.4,5.8,35,0.00,,---,0.00,VWS V13.00,2013-04-08 01:13:00,
2013-04-07 17:18:00,29.8,5.5,29.53,ENE,66,0.0,5.8,35,0.00,,---,0.00,VWS V13.00,2013-04-08 01:18:00,
2013-04-07 17:23:00,28.9,4.1,29.53,ESE,106,0.0,0.0,34,0.00,,---,0.00,VWS V13.00,2013-04-08 01:23:00,
2013-04-07 17:27:00,28.2,4.1,29.53,ENE,69,0.0,0.0,35,0.00,,---,0.00,VWS V13.00,2013-04-08 01:27:00,
2013-04-07 17:33:00,28.4,4.2,29.53,ENE,76,0.0,0.0,35,0.00,,---,0.00,VWS V13.00,2013-04-08 01:33:00,
2013-04-07 17:38:00,28.8,4.6,29.53,ENE,76,0.0,0.0,35,0.00,,---,0.00,VWS V13.00,2013-04-08 01:38:00,
2013-04-07 17:43:00,29.8,6.2,29.53,North,0,0.0,0.0,36,0.00,,---,0.00,VWS V13.00,2013-04-08 01:43:00,
2013-04-07 17:48:00,29.1,4.9,29.53,NNE,31,0.0,0.0,35,0.00,,---,0.00,VWS V13.00,2013-04-08 01:48:00,
2013-04-07 17:53:00,28.4,7.7,29.53,NNE,31,0.0,0.0,41,0.00,,---,0.00,VWS V13.00,2013-04-08 01:53:00,
2013-04-07 17:58:00,28.0,9.4,29.53,NNE,31,0.0,0.0,45,0.00,,---,0.00,VWS V13.00,2013-04-08 01:58:00,
2013-04-07 18:03:00,28.0,9.9,29.53,South,169,0.0,0.0,46,0.00,,---,0.00,VWS V13.00,2013-04-08 02:03:00,
2013-04-07 18:08:00,27.9,9.3,29.53,South,169,0.0,0.0,45,0.00,,---,0.00,VWS V13.00,2013-04-08 02:08:00,
2013-04-07 18:13:00,27.3,8.3,29.53,East,87,0.0,0.0,44,0.00,,---,0.00,VWS V13.00,2013-04-08 02:13:00,
2013-04-07 18:18:00,27.1,8.6,29.56,NE,51,0.0,0.0,45,0.00,,---,0.00,VWS V13.00,2013-04-08 02:18:00,
2013-04-07 18:23:00,27.3,9.3,29.56,ENE,72,0.0,0.0,46,0.00,,---,0.00,VWS V13.00,2013-04-08 02:23:00,
2013-04-07 18:28:00,27.3,8.8,29.56,ESE,104,0.0,0.0,45,0.00,,---,0.00,VWS V13.00,2013-04-08 02:28:00,
2013-04-07 18:33:00,27.9,9.3,29.56,East,96,0.0,0.0,45,0.00,,---,0.00,VWS V13.00,2013-04-08 02:33:00,
2013-04-07 18:38:00,27.1,8.1,29.53,ESE,102,0.0,0.0,44,0.00,,---,0.00,VWS V13.00,2013-04-08 02:38:00,
2013-04-07 18:43:00,27.3,8.8,29.53,East,82,0.0,0.0,45,0.00,,---,0.00,VWS V13.00,2013-04-08 02:43:00,
2013-04-07 18:48:00,27.3,8.8,29.53,ESE,115,0.0,5.8,45,0.00,,---,0.00,VWS V13.00,2013-04-08 02:48:00,
2013-04-07 18:53:00,27.0,8.5,29.53,ENE,76,0.0,7.6,45,0.00,,---,0.00,VWS V13.00,2013-04-08 02:53:00,
2013-04-07 18:58:00,26.8,8.3,29.53,East,81,0.0,7.6,45,0.00,,---,0.00,VWS V13.00,2013-04-08 02:58:00,
2013-04-07 19:03:00,26.8,8.3,29.53,East,87,0.0,0.0,45,0.00,,---,0.00,VWS V13.00,2013-04-08 03:03:00,
2013-04-07 19:08:00,26.6,8.6,29.53,East,79,0.0,0.0,46,0.00,,---,0.00,VWS V13.00,2013-04-08 03:08:00,
2013-04-07 19:13:00,26.8,8.8,29.53,SSE,164,0.0,0.0,46,0.00,,---,0.00,VWS V13.00,2013-04-08 03:13:00,
2013-04-07 19:18:00,26.8,9.3,29.53,ESE,112,0.0,0.0,47,0.00,,---,0.00,VWS V13.00,2013-04-08 03:18:00,
2013-04-07 19:23:00,26.8,9.3,29.53,NE,45,0.0,0.0,47,0.00,,---,0.00,VWS V13.00,2013-04-08 03:23:00,
2013-04-07 19:28:00,26.2,8.8,29.53,NE,45,0.0,0.0,47,0.00,,---,0.00,VWS V13.00,2013-04-08 03:28:00,
2013-04-07 19:33:00,26.1,8.1,29.53,East,81,0.0,0.0,46,0.00,,---,0.00,VWS V13.00,2013-04-08 03:33:00,
2013-04-07 19:38:00,26.1,8.6,29.53,ENE,78,0.0,0.0,47,0.00,,---,0.00,VWS V13.00,2013-04-08 03:38:00,
2013-04-07 19:44:00,26.1,7.6,29.53,East,80,0.0,0.0,45,0.00,,---,0.00,VWS V13.00,2013-04-08 03:44:00,
2013-04-07 19:49:00,26.1,7.6,29.53,East,90,0.0,0.0,45,0.00,,---,0.00,VWS V13.00,2013-04-08 03:49:00,
2013-04-07 19:54:00,26.1,7.6,29.53,North,357,0.0,0.0,45,0.00,,---,0.00,VWS V13.00,2013-04-08 03:54:00,
2013-04-07 19:59:00,25.7,7.3,29.53,ESE,109,0.0,0.0,45,0.00,,---,0.00,VWS V13.00,2013-04-08 03:59:00,
2013-04-07 20:00:00,25.7,7.3,29.53,ESE,109,0.0,0.0,45,0.00,,---,0.00,VWS V13.00,2013-04-08 04:00:00,
2013-04-07 20:05:00,25.9,7.5,29.53,ENE,69,0.0,0.0,45,0.00,,---,0.00,VWS V13.00,2013-04-08 04:05:00,
2013-04-07 20:06:00,25.9,7.5,29.53,ENE,69,0.0,0.0,45,0.00,,---,0.00,VWS V13.00,2013-04-08 04:06:00,
2013-04-07 20:11:00,26.1,7.6,29.53,East,79,0.0,0.0,45,0.00,,---,0.00,VWS V13.00,2013-04-08 04:11:00,
2013-04-07 20:16:00,25.9,7.5,29.53,East,79,0.0,0.0,45,0.00,,---,0.00,VWS V13.00,2013-04-08 04:16:00,
2013-04-07 20:21:00,26.1,7.6,29.53,SE,126,0.0,0.0,45,0.00,,---,0.00,VWS V13.00,2013-04-08 04:21:00,
2013-04-07 20:26:00,26.1,7.6,29.53,East,91,0.0,0.0,45,0.00,,---,0.00,VWS V13.00,2013-04-08 04:26:00,
2013-04-07 20:31:00,26.1,7.6,29.53,East,99,0.0,0.0,45,0.00,,---,0.00,VWS V13.00,2013-04-08 04:31:00,
2013-04-07 20:36:00,26.1,7.2,29.53,ESE,103,0.0,0.0,44,0.00,,---,0.00,VWS V13.00,2013-04-08 04:36:00,
2013-04-07 20:41:00,26.2,7.8,29.53,ESE,116,0.0,0.0,45,0.00,,---,0.00,VWS V13.00,2013-04-08 04:41:00,
2013-04-07 20:46:00,25.9,7.0,29.53,East,87,0.0,0.0,44,0.00,,---,0.00,VWS V13.00,2013-04-08 04:46:00,
2013-04-07 20:51:00,25.9,7.0,29.53,East,95,0.0,0.0,44,0.00,,---,0.00,VWS V13.00,2013-04-08 04:51:00,
2013-04-07 20:56:00,25.9,7.0,29.53,ENE,78,0.0,0.0,44,0.00,,---,0.00,VWS V13.00,2013-04-08 04:56:00,
2013-04-07 21:01:00,25.9,7.0,29.53,ENE,60,0.0,0.0,44,0.00,,---,0.00,VWS V13.00,2013-04-08 05:01:00,
2013-04-07 21:06:00,26.1,7.2,29.53,ENE,76,0.0,0.0,44,0.00,,---,0.00,VWS V13.00,2013-04-08 05:06:00,
2013-04-07 21:11:00,25.7,6.8,29.53,East,82,0.0,0.0,44,0.00,,---,0.00,VWS V13.00,2013-04-08 05:11:00,
2013-04-07 21:16:00,25.7,6.8,29.53,NNE,23,0.0,0.0,44,0.00,,---,0.00,VWS V13.00,2013-04-08 05:16:00,
2013-04-07 21:21:00,26.1,7.2,29.53,North,11,0.0,0.0,44,0.00,,---,0.00,VWS V13.00,2013-04-08 05:21:00,
2013-04-07 21:26:00,26.1,7.2,29.53,ENE,67,0.0,0.0,44,0.00,,---,0.00,VWS V13.00,2013-04-08 05:26:00,
2013-04-07 21:30:00,26.1,7.2,29.53,East,81,0.0,0.0,44,0.00,,---,0.00,VWS V13.00,2013-04-08 05:30:00,
2013-04-07 21:35:00,25.9,7.0,29.53,East,84,0.0,0.0,44,0.00,,---,0.00,VWS V13.00,2013-04-08 05:35:00,
2013-04-07 21:40:00,25.5,6.7,29.53,ENE,66,0.0,0.0,44,0.00,,---,0.00,VWS V13.00,2013-04-08 05:40:00,
2013-04-07 21:45:00,25.5,6.7,29.53,NNE,12,0.0,0.0,44,0.00,,---,0.00,VWS V13.00,2013-04-08 05:45:00,
2013-04-07 21:50:00,25.5,6.7,29.53,NNE,12,0.0,0.0,44,0.00,,---,0.00,VWS V13.00,2013-04-08 05:50:00,
2013-04-07 21:55:00,25.5,6.7,29.53,ENE,65,0.0,0.0,44,0.00,,---,0.00,VWS V13.00,2013-04-08 05:55:00,
2013-04-07 22:00:00,25.3,6.5,29.53,East,90,0.0,0.0,44,0.00,,---,0.00,VWS V13.00,2013-04-08 06:00:00,
2013-04-07 22:06:00,25.3,6.5,29.53,ENE,77,0.0,0.0,44,0.00,,---,0.00,VWS V13.00,2013-04-08 06:06:00,
2013-04-07 22:11:00,25.3,6.5,29.53,ENE,67,0.0,0.0,44,0.00,,---,0.00,VWS V13.00,2013-04-08 06:11:00,
2013-04-07 22:16:00,25.2,6.3,29.53,ENE,62,0.0,0.0,44,0.00,,---,0.00,VWS V13.00,2013-04-08 06:16:00,
2013-04-07 22:21:00,25.0,6.2,29.53,ENE,68,0.0,0.0,44,0.00,,---,0.00,VWS V13.00,2013-04-08 06:21:00,
2013-04-07 22:25:00,25.0,6.2,29.53,East,85,0.0,0.0,44,0.00,,---,0.00,VWS V13.00,2013-04-08 06:25:00,
2013-04-07 22:31:00,25.0,6.2,29.53,NE,49,0.0,0.0,44,0.00,,---,0.00,VWS V13.00,2013-04-08 06:31:00,
2013-04-07 22:36:00,24.8,6.0,29.53,East,86,0.0,0.0,44,0.00,,---,0.00,VWS V13.00,2013-04-08 06:36:00,
2013-04-07 22:41:00,24.8,6.0,29.53,ENE,68,0.0,0.0,44,0.00,,---,0.00,VWS V13.00,2013-04-08 06:41:00,
2013-04-07 22:46:00,24.8,6.0,29.53,North,5,0.0,0.0,44,0.00,,---,0.00,VWS V13.00,2013-04-08 06:46:00,
2013-04-07 22:51:00,24.8,6.0,29.53,NE,48,0.0,0.0,44,0.00,,---,0.00,VWS V13.00,2013-04-08 06:51:00,
2013-04-07 22:56:00,24.8,6.0,29.53,East,90,0.0,0.0,44,0.00,,---,0.00,VWS V13.00,2013-04-08 06:56:00,
2013-04-07 23:01:00,24.6,5.8,29.53,ENE,60,0.0,0.0,44,0.00,,---,0.00,VWS V13.00,2013-04-08 07:01:00,
2013-04-07 23:06:00,24.4,5.7,29.53,NNE,24,0.0,0.0,44,0.00,,---,0.00,VWS V13.00,2013-04-08 07:06:00,
2013-04-07 23:11:00,24.3,5.5,29.53,ENE,59,0.0,0.0,44,0.00,,---,0.00,VWS V13.00,2013-04-08 07:11:00,
2013-04-07 23:16:00,24.1,5.3,29.53,East,80,0.0,0.0,44,0.00,,---,0.00,VWS V13.00,2013-04-08 07:16:00,
2013-04-07 23:22:00,23.9,4.7,29.53,East,83,0.0,0.0,43,0.00,,---,0.00,VWS V13.00,2013-04-08 07:22:00,
2013-04-07 23:27:00,23.9,5.2,29.53,East,87,0.0,0.0,44,0.00,,---,0.00,VWS V13.00,2013-04-08 07:27:00,
2013-04-07 23:32:00,23.7,5.0,29.53,East,96,0.0,0.0,44,0.00,,---,0.00,VWS V13.00,2013-04-08 07:32:00,
2013-04-07 23:37:00,23.7,5.0,29.53,East,82,0.0,0.0,44,0.00,,---,0.00,VWS V13.00,2013-04-08 07:37:00,
2013-04-07 23:42:00,23.5,4.3,29.53,ENE,75,0.0,0.0,43,0.00,,---,0.00,VWS V13.00,2013-04-08 07:42:00,
2013-04-07 23:47:00,23.5,4.3,29.53,ENE,75,0.0,0.0,43,0.00,,---,0.00,VWS V13.00,2013-04-08 07:47:00,
2013-04-07 23:52:00,23.4,4.2,29.53,East,83,0.0,0.0,43,0.00,,---,0.00,VWS V13.00,2013-04-08 07:52:00,
2013-04-07 23:57:00,23.4,4.2,29.53,North,0,0.0,0.0,43,0.00,,---,0.00,VWS V13.00,2013-04-08 07:57:00,